Weather History for Newton, KS

Change the Weather History Date:

Friday, March 15, 2013

  Actual Average Record
Temperature  
Mean Temperature 63 °F -  
Max Temperature 82 °F 51 °F 82 °F (2013)
Min Temperature 44 °F 30 °F 14 °F (2014)
Degree Days  
Heating Degree Days 2    
Growing Degree Days 13 (Base 50)    
Moisture  
Dew Point 41 °F    
Average Humidity 50    
Maximum Humidity 71    
Minimum Humidity 26    
Precipitation  
Precipitation 0.00 in - - ()
Sea Level Pressure  
Sea Level Pressure 29.87 in    
Wind  
Wind Speed 10 mph (SSW)    
Max Wind Speed 21 mph    
Max Gust Speed 26 mph    
Visibility 10 miles    
Events      
Averages and records for this station are not official NWS values.
T = Trace of Precipitation, MM = Missing Value Source: NWS Daily Summary

Daily Weather History Graph

Daily Weather History Graph

Search for Another Location

Airport:

Trip Planner

Search our weather history database for the weather conditions in past years. The results will help you decide how hot, cold, wet, or windy it might be!

Date:

Astronomy

Mar. 15, 2013 Rise Set
Actual Time 7:39 AM CDT 7:36 PM CDT
Civil Twilight 7:13 AM CDT 8:02 PM CDT
Nautical Twilight 6:43 AM CDT 8:33 PM CDT
Astronomical Twilight 6:12 AM CDT 9:04 PM CDT
Moon 9:35 AM CDT (3/15) 11:47 PM CDT (3/15)
Length of Visible Light 12h 49m
Length of Day
11h 56m
Waxing Crescent, 15% of the Moon is Illuminated
Mar 15
Waxing Crescent
Mar 19
First Quarter
Mar 27
Full
Apr 2
Last Quarter
Apr 10
New

Hourly Weather History & Observations

Time (CDT) Temp. Windchill Dew Point Humidity Pressure Visibility Wind Dir Wind Speed Gust Speed Precip Events Conditions
12:15 AM 51.8 °F - 35.6 °F 54% 30.10 in 10.0 mi ESE 5.8 mph - N/A   Clear
12:35 AM 51.8 °F - 35.6 °F 54% 30.09 in 10.0 mi ESE 6.9 mph - N/A   Clear
12:55 AM 53.6 °F - 33.8 °F 47% 30.08 in 10.0 mi ESE 8.1 mph - N/A   Clear
1:15 AM 51.8 °F - 35.6 °F 54% 30.08 in 10.0 mi SE 8.1 mph - N/A   Clear
1:35 AM 50.0 °F - 35.6 °F 58% 30.07 in 10.0 mi SE 6.9 mph - N/A   Clear
2:15 AM 50.0 °F - 35.6 °F 58% 30.06 in 10.0 mi SE 6.9 mph - N/A   Clear
2:35 AM 46.4 °F 42.4 °F 35.6 °F 66% 30.05 in 10.0 mi SE 8.1 mph - N/A   Clear
2:55 AM 46.4 °F 42.4 °F 35.6 °F 66% 30.05 in 10.0 mi SE 8.1 mph - N/A   Clear
3:15 AM 46.4 °F 42.4 °F 35.6 °F 66% 30.03 in 10.0 mi SSE 8.1 mph - N/A   Clear
3:35 AM 46.4 °F 41.9 °F 35.6 °F 66% 30.02 in 10.0 mi SE 9.2 mph - N/A   Clear
3:55 AM 48.2 °F - 35.6 °F 62% 30.02 in 10.0 mi SSE 9.2 mph - N/A   Clear
4:15 AM 46.4 °F 42.4 °F 35.6 °F 66% 30.01 in 10.0 mi SSE 8.1 mph - N/A   Clear
4:35 AM 46.4 °F 42.4 °F 35.6 °F 66% 29.99 in 10.0 mi SSE 8.1 mph - N/A   Clear
4:55 AM 46.4 °F 41.9 °F 35.6 °F 66% 29.98 in 10.0 mi South 9.2 mph - N/A   Clear
5:15 AM 46.4 °F 42.9 °F 35.6 °F 66% 29.98 in 10.0 mi South 6.9 mph - N/A   Clear
5:35 AM 44.6 °F 39.7 °F 35.6 °F 71% 29.97 in 10.0 mi South 9.2 mph - N/A   Clear
5:55 AM 46.4 °F 41.9 °F 37.4 °F 71% 29.97 in 10.0 mi SSW 9.2 mph - N/A   Clear
6:15 AM 46.4 °F 41.5 °F 37.4 °F 71% 29.97 in 10.0 mi SSW 10.4 mph - N/A   Clear
6:35 AM 46.4 °F 41.5 °F 37.4 °F 71% 29.96 in 10.0 mi SSW 10.4 mph - N/A   Clear
6:55 AM 46.4 °F 41.5 °F 37.4 °F 71% 29.96 in 10.0 mi SSW 10.4 mph - N/A   Clear
7:15 AM 46.4 °F 41.9 °F 37.4 °F 71% 29.97 in 10.0 mi SSW 9.2 mph - N/A   Clear
7:35 AM 46.4 °F 41.5 °F 37.4 °F 71% 29.96 in 10.0 mi SW 10.4 mph - N/A   Clear
7:55 AM 46.4 °F 42.4 °F 37.4 °F 71% 29.96 in 10.0 mi SW 8.1 mph - N/A   Clear
8:15 AM 46.4 °F 41.9 °F 37.4 °F 71% 29.96 in 10.0 mi SW 9.2 mph - N/A   Clear
8:35 AM 48.2 °F - 37.4 °F 66% 29.95 in 10.0 mi SW 9.2 mph - N/A   Clear
8:55 AM 50.0 °F - 39.2 °F 66% 29.94 in 10.0 mi SW 11.5 mph - N/A   Clear
9:15 AM 51.8 °F - 41.0 °F 67% 29.94 in 10.0 mi SW 10.4 mph - N/A   Clear
9:35 AM 55.4 °F - 42.8 °F 63% 29.94 in 10.0 mi SW 9.2 mph - N/A   Clear
9:55 AM 59.0 °F - 42.8 °F 55% 29.93 in 10.0 mi WSW 12.7 mph - N/A   Clear
10:15 AM 60.8 °F - 42.8 °F 52% 29.93 in 10.0 mi SW 10.4 mph - N/A   Clear
10:35 AM 62.6 °F - 42.8 °F 48% 29.92 in 10.0 mi WSW 11.5 mph - N/A   Clear
10:55 AM 64.4 °F - 42.8 °F 45% 29.92 in 10.0 mi WSW 12.7 mph - N/A   Clear
11:15 AM 66.2 °F - 42.8 °F 43% 29.91 in 10.0 mi WSW 11.5 mph - N/A   Clear
11:35 AM 68.0 °F - 42.8 °F 40% 29.90 in 10.0 mi SW 11.5 mph - N/A   Clear
11:55 AM 69.8 °F - 44.6 °F 40% 29.90 in 10.0 mi SW 12.7 mph - N/A   Clear
12:15 PM 71.6 °F - 44.6 °F 38% 29.89 in 10.0 mi WSW 10.4 mph - N/A   Clear
12:35 PM 73.4 °F - 44.6 °F 36% 29.88 in 10.0 mi SW 11.5 mph - N/A   Clear
12:55 PM 73.4 °F - 44.6 °F 36% 29.87 in 10.0 mi WSW 11.5 mph - N/A   Clear
1:15 PM 75.2 °F - 44.6 °F 34% 29.86 in 10.0 mi SW 12.7 mph - N/A   Clear
1:35 PM 77.0 °F - 44.6 °F 32% 29.85 in 10.0 mi SW 12.7 mph - N/A   Clear
1:55 PM 78.8 °F - 44.6 °F 30% 29.84 in 10.0 mi SW 15.0 mph - N/A   Clear
2:15 PM 78.8 °F - 44.6 °F 30% 29.83 in 10.0 mi SW 15.0 mph - N/A   Clear
2:35 PM 80.6 °F - 44.6 °F 28% 29.81 in 10.0 mi SW 16.1 mph - N/A   Clear
2:55 PM 80.6 °F - 44.6 °F 28% 29.80 in 10.0 mi SSW 16.1 mph - N/A   Clear
3:15 PM 82.4 °F - 44.6 °F 26% 29.78 in 10.0 mi SW 15.0 mph 18.4 mph N/A   Clear
3:35 PM 80.6 °F - 42.8 °F 26% 29.77 in 10.0 mi SSW 17.3 mph - N/A   Clear
3:55 PM 82.4 °F - 44.6 °F 26% 29.76 in 10.0 mi SSW 16.1 mph 20.7 mph N/A   Clear
4:15 PM 78.8 °F - 46.4 °F 32% 29.76 in 10.0 mi South 17.3 mph - N/A   Clear
4:35 PM 78.8 °F - 46.4 °F 32% 29.75 in 10.0 mi South 19.6 mph 24.2 mph N/A   Clear
4:55 PM 78.8 °F - 46.4 °F 32% 29.75 in 10.0 mi SSW 18.4 mph - N/A   Clear
5:15 PM 78.8 °F - 44.6 °F 30% 29.74 in 10.0 mi SSW 20.7 mph 25.3 mph N/A   Clear
5:35 PM 78.8 °F - 42.8 °F 28% 29.74 in 10.0 mi SSW 17.3 mph 26.5 mph N/A   Clear
5:55 PM 77.0 °F - 42.8 °F 29% 29.74 in 10.0 mi SSW 17.3 mph 25.3 mph N/A   Clear
6:15 PM 73.4 °F - 44.6 °F 36% 29.74 in 10.0 mi SSW 13.8 mph - N/A   Clear
6:35 PM 73.4 °F - 44.6 °F 36% 29.73 in 10.0 mi SSW 15.0 mph - N/A   Clear
6:55 PM 73.4 °F - 44.6 °F 36% 29.73 in 10.0 mi SSW 17.3 mph - N/A   Clear
7:15 PM 71.6 °F - 42.8 °F 35% 29.72 in 10.0 mi SSW 12.7 mph - N/A   Clear
7:35 PM 69.8 °F - 42.8 °F 38% 29.72 in 10.0 mi SSW 10.4 mph - N/A   Clear
7:55 PM 66.2 °F - 42.8 °F 43% 29.72 in 10.0 mi SSW 9.2 mph - N/A   Clear
8:15 PM 66.2 °F - 44.6 °F 46% 29.72 in 10.0 mi SSW 11.5 mph - N/A   Clear
8:35 PM 66.2 °F - 46.4 °F 49% 29.72 in 10.0 mi SSW 13.8 mph - N/A   Clear
8:55 PM 66.2 °F - 46.4 °F 49% 29.72 in 10.0 mi SSW 12.7 mph - N/A   Clear
9:15 PM 66.2 °F - 46.4 °F 49% 29.72 in 10.0 mi SSW 13.8 mph - N/A   Clear
9:35 PM 64.4 °F - 46.4 °F 52% 29.72 in 10.0 mi SSW 12.7 mph - N/A   Clear
9:55 PM 64.4 °F - 46.4 °F 52% 29.73 in 10.0 mi SSW 12.7 mph - N/A   Clear
10:15 PM 62.6 °F - 46.4 °F 55% 29.73 in 10.0 mi SW 11.5 mph - N/A   Clear
10:35 PM 62.6 °F - 46.4 °F 55% 29.73 in 10.0 mi SSW 12.7 mph - N/A   Clear
10:55 PM 60.8 °F - 46.4 °F 59% 29.74 in 10.0 mi SW 11.5 mph - N/A   Clear
11:15 PM 60.8 °F - 44.6 °F 55% 29.74 in 10.0 mi SW 10.4 mph - N/A   Clear
11:35 PM 59.0 °F - 44.6 °F 59% 29.74 in 10.0 mi SW 6.9 mph - N/A   Clear
11:55 PM 57.2 °F - 44.6 °F 63% 29.74 in 10.0 mi WSW 6.9 mph - N/A   Clear